Regional Weather Roundup
Issued by NWS Cleveland, OH

Home | Current Version | Previous Version | Text Only | Print | Product List | Glossary Off
Versions: 1 2 3 4 5 6 7 8 9 10 11 12 13 14 15 16 17 18 19 20 21 22 23 24 25 26 27 28 29 30 31 32 33 34 35 36 37 38 39 40 41 42 43 44 45 46 47 48 49 50

449
ASUS41 KCLE 191902
RWRCLE
OHIO REGIONAL WEATHER ROUNDUP
NATIONAL WEATHER SERVICE CLEVELAND, OH
300 PM EDT THU OCT 19 2017

NOTE: "FAIR" INDICATES FEW OR NO CLOUDS BELOW 12,000 FEET WITH NO
SIGNIFICANT WEATHER AND/OR OBSTRUCTIONS TO VISIBILITY.

OHZ001>008-015>018-024>027-034-035-043-044-192000-
   NORTHWEST OHIO

CITY           SKY/WX    TMP DP  RH WIND       PRES   REMARKS
DEFIANCE       FAIR      69  48  47 W8        30.14F
FINDLAY        FAIR      73  48  41 W13       30.14F
TOLEDO EXPRESS FAIR      71  48  43 SW17      30.11F
TOLEDO EXEC    FAIR      71  49  45 SW15      30.12F
LIMA           FAIR      71  49  45 SW15      30.15F
$$

OHZ009>014-019>023-028>033-038-089-192000-
   NORTHEAST OHIO

CITY           SKY/WX    TMP DP  RH WIND       PRES   REMARKS
CLE-HOPKINS    FAIR      73  50  44 W13       30.14F
CLE-LAKEFRONT  PTSUNNY   70  53  54 W8        30.10F
CUY CO. ARPT   MOSUNNY   72  52  49 SW12      30.12F
LORAIN-ELYRIA  FAIR      72  45  37 SW12      30.13F
ASHTABULA      FAIR      69  48  47 SW13      30.11F
AKRON-CANTON   FAIR      71  48  43 SW14G21   30.16S
WOOSTER        FAIR      73  48  41 SW10G16   30.16S
MANSFIELD      FAIR      72  48  42 SW18      30.15F
YOUNGSTOWN     PTSUNNY   70  48  45 SW15G25   30.13F
$$

OHZ042-051>053-060>062-070>072-077>081-192000-
  SOUTHWEST OHIO

CITY           SKY/WX    TMP DP  RH WIND       PRES   REMARKS
CINC-COVINGTON FAIR      72  52  49 SW9       30.20F
CINC-LUNKEN    FAIR      72  53  51 SW9       30.20F
HAMILTON       FAIR      74  52  46 W8        30.20F
DAYTON         FAIR      73  53  49 SW9       30.19F
WRIGHT-PAT AFB FAIR      71  49  45 S12       30.18F
DAYTON GENERAL FAIR      70  50  49 SW9       30.19F
WILMINGTON     FAIR      70  52  52 SW10      30.20F
$$

OHZ036-037-039>041-045>050-054>059-063>069-073>076-082>088-192000-
  CENTRAL AND SOUTHEAST OHIO

CITY           SKY/WX    TMP DP  RH WIND       PRES   REMARKS
COLUMBUS       FAIR      72  50  45 S12       30.17F
OSU AIRPORT    FAIR      73  52  47 W14       30.17F
BOLTON FIELD   SUNNY     72  50  46 SW12G21   30.19F
RICKENBACK AFB FAIR      72  50  45 SW13G20   30.18F
NEWARK         FAIR      73  48  41 SW9       30.17F
MARION         FAIR      73  48  41 SW13      30.15F
LANCASTER      FAIR      70  51  51 SW12G18   30.19F
ZANESVILLE     FAIR      71  48  43 W14G20    30.18F
NEW PHILLY     NOT AVBL
$$




USA.gov is the U.S. government's official web portal to all federal, state and local government web resources and services.